Regional Weather Roundup
Issued by NWS Boston, MA

Current Version | Previous Version | Text Only | Print | Product List | Glossary Off
Versions: 1 2 3 4 5 6 7 8 9 10 11 12 13 14 15 16 17 18 19 20 21 22 23 24 25 26 27
000 ASUS41 KBOX 302110 RWRBOX REGIONAL WEATHER ROUNDUP NATIONAL WEATHER SERVICE TAUNTON MA 500 PM EDT THU MAR 30 2017 NOTE: "FAIR" INDICATES FEW OR NO CLOUDS BELOW 12,000 FEET WITH NO SIGNIFICANT WEATHER AND/OR OBSTRUCTIONS TO VISIBILITY. MAZALL-302200- EASTERN MASSACHUSETTS CITY SKY/WX TMP DP RH WIND PRES REMARKS BOSTON PTSUNNY 42 26 53 E9 30.15S BEVERLY SUNNY 45 25 45 SE9 30.13F LAWRENCE SUNNY 48 18 30 N6 30.14F BEDFORD CLOUDY 49 14 24 NW7 30.12F BLUE HILL N/A 48 19 31 W7 30.11S NORWOOD MOSUNNY 51 18 27 N5 30.13F MARSHFIELD CLOUDY 43 19 39 NE6 30.15S PLYMOUTH MOSUNNY 44 21 40 NE8 30.14F TAUNTON MOSUNNY 51 20 29 NE3 30.13S NEW BEDFORD MOSUNNY 45 23 42 S13 30.14S $$ MAZALL-302200- CAPE COD AND THE ISLANDS CITY SKY/WX TMP DP RH WIND PRES REMARKS FALMOUTH MOSUNNY 45 19 36 MISG 30.16S HYANNIS MOSUNNY 45 23 42 N8G17 30.14S CHATHAM MOSUNNY 43 24 47 NE7 30.16S PROVINCETOWN SUNNY 42 24 49 NE6 30.16F NANTUCKET MOSUNNY 43 23 45 N10 30.16S MARTHAS VNYRD MOSUNNY 44 23 43 S10 30.16S $$ MAZALL-302200- CENTRAL AND WESTERN MASSACHUSETTS CITY SKY/WX TMP DP RH WIND PRES REMARKS WORCESTER PTSUNNY 46 16 30 NW7 30.11F FITCHBURG MOSUNNY 51 17 26 NW9 30.13F ORANGE MOSUNNY 47 17 30 NW5 30.13F SPRINGFIELD PTSUNNY 51 19 27 N5 30.11F WESTFIELD SUNNY 52 19 27 CALM 30.11F NORTH ADAMS MOSUNNY 44 21 40 VRB5 30.14F PITTSFIELD MOSUNNY 44 20 38 NW8 30.10F $$ RIZALL-302200- RHODE ISLAND CITY SKY/WX TMP DP RH WIND PRES REMARKS PROVIDENCE MOSUNNY 52 18 26 N5 30.13F NEWPORT MOSUNNY 45 24 43 SW8G17 30.14S BLOCK ISLAND SUNNY 43 25 49 S12 30.17F SMITHFIELD MOSUNNY 49 20 31 VRB6 30.13S WESTERLY SUNNY 44 28 53 S13 30.17F $$ CTZALL-302200- CONNECTICUT CITY SKY/WX TMP DP RH WIND PRES REMARKS BRADLEY INTL PTSUNNY 52 18 26 NE5 30.12F HARTFORD SUNNY 52 20 28 N3 30.13F BRIDGEPORT CLOUDY 47 22 37 S6 30.14F DANBURY MOSUNNY 50 19 29 CALM 30.11F GROTON SUNNY 44 32 62 S10 30.16S NEW HAVEN MOSUNNY 45 26 47 SW8 30.14F CHESTER FAIR 48 21 34 W7 30.13F MERIDEN SUNNY 51 23 33 S9 30.13F WILLIMANTIC SUNNY 54 21 27 NW8 30.13F OXFORD PTSUNNY 48 23 37 S9 30.12F $$ MEZ002-015-021-024-NHZ003-005-008-011-012-014-VTZ005-008-302200- NORTHERN NEW ENGLAND CITY SKY/WX TMP DP RH WIND PRES REMARKS PORTLAND ME SUNNY 48 20 32 N9 30.12S BANGOR ME MOSUNNY 39 21 48 NW23 30.12R WCI 28 CONCORD NH SUNNY 48 18 30 NW8 30.12F MANCHESTER NH PTSUNNY 48 15 26 NW7 30.11F NASHUA NH MOSUNNY 48 18 30 NW6 30.13F PORTSMOUTH NH MOSUNNY 47 19 33 SE9 30.11F JAFFREY NH MOSUNNY 45 15 30 VRB5 30.12S KEENE NH CLOUDY 46 15 28 N7 30.13F BURLINGTON VT PTSUNNY 41 21 44 NW14 30.20S MT. WASHINGTON MOSUNNY 19 3 49 NW8G21 N/A WCI 9 $$ NYZ052-076-302200- EASTERN NEW YORK CITY SKY/WX TMP DP RH WIND PRES REMARKS ALBANY CLOUDY 46 20 35 NE3 30.17F NEW YORK CITY PTSUNNY 48 28 46 S12 30.13F $$ ANZALL-302200- MARINE OBSERVATIONS STATION/POSITION TIME TEMP WIND PRES VSBY WAVE AIR SEA DIR/SP/G HT/PER (UTC) (F) (DEG/KT/KT) (MB) (MI) (FT/S) BOSTON BUOY 1950 40 42 130/ 4/ 6 1019.9 4/ 7 BUZZARDS BAY 2000 39 200/ 14/ 15 1021.6S NANTUCKET SOUND 2050 41 1021.3R 2/ 4 MASS BAY-STELLWA 2004 42 40 170/ 6/ 8 1020.1R 3/ 7 ISLE OF SHOALS 2000 41 150/ 8/ 8 1020.4S S OF BLOCK IS 2055 41 N/A 2/ 8 $$ ......................KEY......................... SKY/WX - SKY CONDITION/PRESENT WEATHER TMP - TEMPERATURE IN FAHRENHEIT DWPT - DEWPOINT IN FAHRENHEIT RH - RELATIVE HUMIDITY IN PERCENT WIND - DIRECTION AND SPEED IN MPH PRES - MEAN SEA LEVEL PRESSURE IN INCHES OF HG WCI - WIND CHILL INDEX VSB - VISIBILITY IN MILES HX - HEAT INDEX TC - TEMPERATURE IN CELSIUS VRB - VARIABLE WIND DIRECTION N/A - NOT AVAILABLE

USA.gov is the U.S. government's official web portal to all federal, state and local government web resources and services.